[[{"header":{"parameterUnit":"m.s-1","parameterCategory":1,"la1":30.2991,"la2":30.254,"lo1":-89.0895,"lo2":-89.0444,"dy":0.0017,"dx":0.0017,"nx":28,"ny":28,"refTime":"2025-01-18T03:00:00:Z","depth":0,"parameterNumber":2,"parameterNumberName":"U-component_of_WINDS"},"data":[0,0,0,0,0,0,0,0,0,0,0,0,0,0,0,0,0,0,0,0,0,0,0,0,0,0,0,0,0,0,0,0,0,0,0,0,0,0,0,0,0,0,0,0,0,0,0,0,0,0,0,0,0,0,0,0,0,0,-3.5501,-3.5502,0,-3.5607,-3.5608,-3.561,-3.5632,-3.5631,-3.563,-3.5629,-3.5736,-3.5739,-3.5743,0,0,0,0,0,0,0,0,0,0,0,0,0,-3.5316,-3.5319,-3.5501,-3.5502,-3.5504,-3.5607,-3.5608,-3.561,-3.5632,-3.5631,-3.563,-3.5629,-3.5735,-3.5739,-3.5743,0,0,0,0,0,0,0,0,0,0,0,0,0,-3.5407,-3.532,-3.5501,-3.5527,-3.553,-3.5607,-3.5608,-3.561,-3.5632,-3.5631,-3.563,-3.5629,-3.5733,-3.5739,-3.5744,-3.5801,0,0,-3.576,-3.5763,0,0,0,0,0,0,0,0,-3.5401,-3.5413,-3.5522,-3.5525,-3.5529,-3.5605,-3.5582,-3.5674,-3.5632,-3.5593,-3.5629,-3.5628,-3.5693,-3.5702,-3.5724,-3.5806,-3.581,-3.5761,-3.5764,-3.5766,-3.5768,0,0,0,0,0,0,0,-3.5395,-3.5409,-3.5543,-3.5523,-3.5528,-3.5533,-3.5545,-3.56,-3.5649,-3.5597,-3.5599,-3.5611,-3.5695,-3.5719,-3.5727,-3.5812,-3.5761,-3.5765,-3.5769,-3.5771,-3.5946,-3.5948,0,0,0,0,0,0,-3.5384,-3.5403,-3.5539,-3.5546,-3.5461,-3.5538,-3.555,-3.5582,-3.5648,-3.5657,-3.5612,-3.5612,-3.5711,-3.5721,-3.5731,-3.5802,-3.5766,-3.5771,-3.5774,-3.5945,-3.5947,-3.5948,0,0,0,0,0,0,-3.538,-3.5396,-3.5535,-3.5475,-3.5493,-3.5542,-3.5577,-3.5585,-3.5609,-3.566,-3.5668,-3.5628,-3.571,-3.5723,-3.5784,-3.5806,-3.5774,-3.5779,-3.5943,-3.5945,-3.5947,-3.5944,0,0,0,0,0,0,-3.5375,-3.5395,-3.5417,-3.5476,-3.5497,-3.5586,-3.5579,-3.5588,-3.5618,-3.5619,-3.5677,-3.5685,-3.571,-3.5775,-3.5789,-3.5813,-3.5783,-3.5941,-3.5944,-3.5947,-3.5943,-3.5946,-3.5949,0,0,0,0,0,-3.5368,-3.5411,-3.5418,-3.5434,-3.5525,-3.5588,-3.5599,-3.5628,-3.562,-3.5642,-3.5675,-3.5683,-3.5802,-3.5781,-3.5797,-3.5822,-3.594,-3.5943,-3.5946,-3.5941,-3.5945,-3.5949,0,0,0,0,0,0,-3.5352,-3.5419,-3.5427,-3.5491,-3.5533,-3.5591,-3.562,-3.5632,-3.5677,-3.5675,-3.5709,-3.5722,-3.578,-3.5808,-3.5784,-3.5882,-3.587,-3.5877,-3.5861,-3.5866,-3.5869,-3.586,-3.5787,0,0,0,0,0,-3.5356,-3.5402,-3.5458,-3.5508,-3.5529,-3.5571,-3.5599,-3.5618,-3.5663,-3.5681,-3.5718,-3.5762,-3.5809,-3.5839,-3.5885,-3.5947,-3.596,-3.5973,-3.5976,-3.5978,-3.5983,-3.6019,-3.6025,-3.5959,-3.5959,-3.5959,0,0,-3.5364,-3.5407,-3.5433,-3.5506,-3.5541,-3.5587,-3.5586,-3.5634,-3.5669,-3.5688,-3.5748,-3.5777,-3.5827,-3.5889,-3.5918,-3.5914,-3.6005,-3.5983,-3.5984,-3.5988,-3.6023,-3.6029,-3.6035,-3.5961,-3.5961,-3.596,0,0,-3.5403,-3.544,-3.5486,-3.5522,-3.5576,-3.5604,-3.5615,-3.5672,-3.5692,-3.5753,-3.5769,-3.581,-3.589,-3.5926,-3.5954,-3.6009,-3.6018,-3.6023,-3.6039,-3.6074,-3.6079,-3.6084,-3.6103,-3.6109,-3.6028,-3.6028,-3.6028,0,-3.5406,-3.5476,-3.5508,-3.5556,-3.5588,-3.5609,-3.5656,-3.569,-3.5755,-3.5777,-3.5771,-3.5874,-3.5909,-3.598,-3.5993,-3.6016,-3.6029,-3.6016,-3.6076,-3.6081,-3.6086,-3.6104,-3.6112,-3.6028,-3.6028,-3.6028,-3.6028,0,-3.5477,-3.5526,-3.5557,-3.5622,-3.5657,-3.5704,-3.5743,-3.5775,-3.5791,-3.582,-3.5882,-3.5925,-3.5981,-3.6,-3.6015,-3.6073,-3.6069,-3.6069,-3.6058,-3.6092,-3.611,-3.6117,-3.6029,-3.6028,-3.6028,-3.6028,0,0,-3.5507,-3.559,-3.56,-3.563,-3.5693,-3.5731,-3.578,-3.5835,-3.5862,-3.5907,-3.5949,-3.6017,-3.6019,-3.6051,-3.6072,-3.6102,-3.6142,-3.6099,-3.6101,-3.6105,-3.6209,-3.6207,-3.6215,-3.6149,-3.6151,-3.6152,-3.6204,0,-3.5552,-3.564,-3.5671,-3.5744,-3.579,-3.5812,-3.5854,-3.5897,-3.5925,-3.5968,-3.6,-3.6048,-3.6046,-3.6066,-3.6097,-3.6131,-3.6163,-3.6128,-3.6188,-3.6189,-3.6173,-3.6224,-3.6223,-3.6269,-3.6212,-3.6213,-3.6214,0,-3.5616,-3.5664,-3.5742,-3.5799,-3.582,-3.5857,-3.5911,-3.5952,-3.6001,-3.602,-3.6058,-3.6076,-3.6128,-3.6116,-3.6188,-3.6163,-3.6189,-3.621,-3.6212,-3.6218,-3.6203,-3.6231,-3.6285,-3.6292,-3.6225,-3.6224,-3.6223,0,-3.5629,-3.5713,-3.577,-3.5796,-3.5864,-3.5891,-3.592,-3.5969,-3.6,-3.6048,-3.6069,-3.6121,-3.615,-3.619,-3.6222,-3.621,-3.6291,-3.6281,-3.6308,-3.6307,-3.6323,-3.6321,-3.6381,-3.6342,-3.6341,-3.6341,-3.6341,0,-3.5676,-3.5723,-3.5777,-3.5812,-3.5865,-3.5901,-3.5952,-3.5983,-3.6027,-3.6068,-3.609,-3.6129,-3.617,-3.6214,-3.6239,-3.6295,-3.6308,-3.6324,-3.633,-3.6322,-3.6319,-3.6338,-3.6336,-3.6343,-3.6343,-3.6342,-3.6342,0,-3.5699,-3.5738,-3.5802,-3.5862,-3.5879,-3.5915,-3.5967,-3.6002,-3.6033,-3.6085,-3.6099,-3.6147,-3.62,-3.6236,-3.6304,-3.6321,-3.6381,-3.6388,-3.6365,-3.6368,-3.6392,-3.6389,-3.6466,-3.6478,-3.643,-3.6431,-3.6431,0,-3.5726,-3.5762,-3.5828,-3.5858,-3.5888,-3.5936,-3.5969,-3.6006,-3.6039,-3.6099,-3.6127,-3.6182,-3.6227,-3.6311,-3.6351,-3.6403,-3.641,-3.6434,-3.6418,-3.6408,-3.641,-3.6407,-3.6411,-3.6435,-3.6436,-3.6436,-3.6436,0,-3.5769,-3.5787,-3.5834,-3.5889,-3.5928,-3.5973,-3.6017,-3.604,-3.6085,-3.6121,-3.6176,-3.6212,-3.6282,-3.6336,-3.6393,-3.6423,-3.6437,-3.6441,-3.645,-3.6441,-3.6426,-3.6434,-3.637,-3.6439,-3.6439,-3.6438,-3.6438,-3.6438,-3.5795,-3.5828,-3.588,-3.5932,-3.597,-3.6012,-3.6048,-3.6084,-3.613,-3.6191,-3.621,-3.6267,-3.6316,-3.6394,-3.6425,-3.6471,-3.6469,-3.6481,-3.6485,-3.6487,-3.6486,-3.642,-3.6481,-3.6481,-3.6481,-3.6481,-3.6481,0,-3.5839,-3.5874,-3.5922,-3.5984,-3.6025,-3.6037,-3.6087,-3.612,-3.6171,-3.6216,-3.6261,-3.6325,-3.6378,-3.6423,-3.6478,-3.6505,-3.6513,-3.6518,-3.6516,-3.6523,-3.6485,-3.6472,-3.6511,-3.6511,-3.6511,-3.6511,-3.6511,-3.6511,-3.5867,-3.5925,-3.5949,-3.6026,-3.606,-3.6117,-3.6145,-3.6183,-3.622,-3.629,-3.6335,-3.6365,-3.641,-3.6469,-3.6518,-3.653,-3.6549,-3.6553,-3.6566,-3.6529,-3.6526,-3.6522,-3.651,-3.6557,-3.6557,-3.66,-3.66,-3.6601]},{"header":{"parameterUnit":"m.s-1","parameterCategory":1,"la1":30.2991,"la2":30.254,"lo1":-89.0895,"lo2":-89.0444,"dy":0.0017,"dx":0.0017,"nx":28,"ny":28,"refTime":"2025-01-18T03:00:00:Z","depth":0,"parameterNumber":3,"parameterNumberName":"V-component_of_WINDS"},"data":[0,0,0,0,0,0,0,0,0,0,0,0,0,0,0,0,0,0,0,0,0,0,0,0,0,0,0,0,0,0,0,0,0,0,0,0,0,0,0,0,0,0,0,0,0,0,0,0,0,0,0,0,0,0,0,0,0,0,2.3101,2.3102,0,2.3145,2.3146,2.3146,2.3208,2.3209,2.321,2.3211,2.3254,2.3255,2.3255,0,0,0,0,0,0,0,0,0,0,0,0,0,2.3072,2.3072,2.3101,2.3102,2.3102,2.3145,2.3146,2.3146,2.3207,2.3209,2.321,2.3211,2.3254,2.3254,2.3255,0,0,0,0,0,0,0,0,0,0,0,0,0,2.3097,2.3072,2.3101,2.3138,2.3142,2.3145,2.3146,2.3146,2.3207,2.3209,2.321,2.3212,2.3254,2.3254,2.3255,2.3225,0,0,2.3256,2.3256,0,0,0,0,0,0,0,0,2.3096,2.3098,2.3132,2.3136,2.314,2.3173,2.3151,2.3173,2.3207,2.3182,2.3211,2.3213,2.3226,2.3228,2.3233,2.3227,2.3229,2.3256,2.3256,2.3256,2.3256,0,0,0,0,0,0,0,2.3094,2.3097,2.3119,2.3133,2.3137,2.3153,2.3158,2.3156,2.3195,2.3185,2.3189,2.3193,2.3228,2.3233,2.3235,2.3229,2.3256,2.3256,2.3256,2.3256,2.3204,2.3203,0,0,0,0,0,0,2.3087,2.3095,2.3117,2.312,2.3121,2.3152,2.3158,2.316,2.3195,2.3202,2.3192,2.3196,2.3232,2.3234,2.3236,2.3207,2.3256,2.3256,2.3256,2.3206,2.3204,2.3202,0,0,0,0,0,0,2.3086,2.3088,2.3116,2.3109,2.3113,2.3151,2.3153,2.316,2.3165,2.3201,2.3208,2.319,2.3233,2.3236,2.3228,2.3209,2.3256,2.3256,2.3208,2.3205,2.3203,2.3144,0,0,0,0,0,0,2.3085,2.3087,2.3076,2.3108,2.3113,2.3106,2.3152,2.316,2.3166,2.3171,2.32,2.3206,2.3234,2.3227,2.3228,2.321,2.3257,2.321,2.3207,2.3204,2.3148,2.314,2.3134,0,0,0,0,0,2.3083,2.3057,2.3075,2.3077,2.31,2.3105,2.3108,2.3141,2.3164,2.3153,2.3176,2.3206,2.321,2.3226,2.3228,2.3209,2.3211,2.3208,2.3204,2.3152,2.3142,2.3134,0,0,0,0,0,0,2.302,2.3061,2.3082,2.3065,2.3081,2.3115,2.3103,2.3129,2.3139,2.3144,2.3184,2.319,2.3178,2.3192,2.3209,2.3184,2.3215,2.3212,2.3175,2.3166,2.3159,2.3156,2.3257,0,0,0,0,0,2.3005,2.3005,2.3041,2.3022,2.3029,2.3064,2.3068,2.3092,2.311,2.3117,2.3139,2.3156,2.3162,2.3164,2.3171,2.315,2.3159,2.3138,2.3131,2.3125,2.3122,2.3115,2.3108,2.3191,2.3191,2.3191,0,0,2.2972,2.2994,2.2992,2.301,2.3025,2.3026,2.307,2.3067,2.3068,2.3116,2.3112,2.3128,2.3149,2.3136,2.3131,2.3148,2.3101,2.312,2.3115,2.3116,2.3111,2.3103,2.3096,2.3189,2.3189,2.3189,0,0,2.2913,2.2929,2.2917,2.2932,2.2955,2.2979,2.2976,2.3006,2.302,2.3015,2.3053,2.3054,2.3062,2.3077,2.3085,2.3034,2.3062,2.3035,2.2997,2.299,2.2984,2.2978,2.2963,2.2956,2.3032,2.3031,2.3031,0,2.2869,2.2871,2.2907,2.2904,2.2912,2.2956,2.2945,2.2957,2.2981,2.2986,2.3004,2.3018,2.3034,2.3027,2.3014,2.3019,2.3018,2.3033,2.2982,2.2976,2.2972,2.2958,2.2951,2.3028,2.3029,2.3029,2.3029,0,2.2818,2.2819,2.2806,2.283,2.2836,2.2829,2.2864,2.2866,2.289,2.2913,2.2909,2.2931,2.2945,2.2944,2.2966,2.294,2.295,2.2974,2.3007,2.296,2.2947,2.2942,2.3024,2.3025,2.3026,2.3026,0,0,2.2721,2.2766,2.2761,2.2773,2.2803,2.2804,2.28,2.2814,2.2816,2.2831,2.283,2.2836,2.286,2.2869,2.2894,2.2887,2.2849,2.2913,2.2914,2.2903,2.2825,2.2808,2.2801,2.2868,2.2867,2.2866,2.2824,0,2.267,2.2665,2.2698,2.2684,2.2687,2.273,2.2726,2.2744,2.2765,2.2771,2.2794,2.28,2.2829,2.2835,2.283,2.2855,2.2835,2.2858,2.2868,2.2868,2.2864,2.2794,2.2776,2.2735,2.2819,2.2818,2.2817,0,2.2609,2.2623,2.261,2.2643,2.2645,2.2641,2.2659,2.2663,2.2685,2.2701,2.2713,2.2742,2.2741,2.2771,2.2771,2.2786,2.2792,2.2805,2.2804,2.2808,2.2841,2.2798,2.2722,2.2717,2.2809,2.281,2.2811,0,2.2543,2.2558,2.2553,2.2562,2.2599,2.2596,2.2612,2.2635,2.2643,2.2657,2.2663,2.2677,2.2685,2.2695,2.2728,2.2746,2.2725,2.2757,2.274,2.2739,2.2735,2.2735,2.2661,2.2734,2.2734,2.2735,2.2735,0,2.2484,2.2475,2.2525,2.2522,2.2514,2.2552,2.2543,2.2563,2.2584,2.2586,2.2623,2.2625,2.2667,2.2673,2.2698,2.2696,2.2699,2.2713,2.272,2.2711,2.2709,2.2717,2.2721,2.2733,2.2733,2.2734,2.2734,0,2.241,2.2442,2.244,2.2476,2.2485,2.2478,2.2509,2.2509,2.2532,2.2535,2.2538,2.2575,2.2585,2.2618,2.2636,2.2653,2.2644,2.2656,2.2637,2.2642,2.2624,2.2626,2.2554,2.2548,2.2622,2.2621,2.2621,0,2.2371,2.2365,2.2402,2.2406,2.2421,2.2427,2.2436,2.2473,2.248,2.2506,2.2503,2.2516,2.2529,2.2543,2.2572,2.2586,2.26,2.2574,2.2603,2.2595,2.2603,2.2604,2.2605,2.2569,2.2567,2.2567,2.2566,0,2.23,2.2317,2.2327,2.2344,2.2353,2.2368,2.2384,2.2386,2.2428,2.2435,2.2446,2.2456,2.2475,2.2488,2.2508,2.2524,2.2553,2.2557,2.2554,2.2546,2.2536,2.2544,2.2623,2.2558,2.2559,2.256,2.256,2.256,2.2244,2.2242,2.2268,2.2279,2.2296,2.2312,2.2314,2.2339,2.2349,2.2368,2.2389,2.2399,2.2423,2.2453,2.2467,2.2475,2.2491,2.2486,2.2485,2.2484,2.2481,2.2533,2.2479,2.2479,2.2479,2.2479,2.248,0,2.2177,2.2196,2.2206,2.223,2.2239,2.2265,2.2286,2.2292,2.23,2.232,2.2333,2.2347,2.236,2.2391,2.2407,2.2408,2.2422,2.2412,2.2413,2.2417,2.2465,2.2467,2.2401,2.2401,2.2401,2.2401,2.2401,2.2401,2.2144,2.2143,2.2163,2.2172,2.2192,2.2202,2.2212,2.2227,2.2244,2.2258,2.227,2.229,2.2315,2.2334,2.2348,2.2357,2.2363,2.2348,2.2361,2.2406,2.2413,2.2421,2.2423,2.2349,2.2349,2.2314,2.2313,2.2313]}]]